Time,TemperatureF,DewpointF,PressureIn,WindDirection,WindDirectionDegrees,WindSpeedMPH,WindSpeedGustMPH,Humidity,HourlyPrecipIn,Conditions,Clouds,dailyrainin,SoftwareType,DateUTC
2013-01-09 00:02:00,38.0,29.0,29.93,SW,232,11.0,13.0,71,0.00,,,0.00,,2013-01-09 06:02:00,
2013-01-09 00:12:00,38.0,29.0,29.93,SW,232,11.0,13.0,71,0.00,,,0.00,,2013-01-09 06:12:00,
2013-01-09 00:22:00,38.0,29.0,29.92,SW,234,8.0,11.0,70,0.00,,,0.00,,2013-01-09 06:22:00,
2013-01-09 00:32:00,38.0,29.0,29.92,SW,225,14.0,17.0,70,0.00,,,0.00,,2013-01-09 06:32:00,
2013-01-09 00:42:00,38.0,29.0,29.92,SW,225,14.0,17.0,70,0.00,,,0.00,,2013-01-09 06:42:00,
2013-01-09 00:52:00,38.0,29.0,29.92,SW,234,8.0,16.0,70,0.00,,,0.00,,2013-01-09 06:52:00,
2013-01-09 01:02:00,38.0,29.0,29.92,WSW,246,9.0,13.0,70,0.00,,,0.00,,2013-01-09 07:02:00,
2013-01-09 01:12:00,38.0,29.0,29.92,WSW,246,9.0,13.0,70,0.00,,,0.00,,2013-01-09 07:12:00,
2013-01-09 01:22:00,38.0,29.0,29.91,WSW,237,9.0,16.0,69,0.00,,,0.00,,2013-01-09 07:22:00,
2013-01-09 01:32:00,39.0,29.0,29.91,WSW,246,10.0,18.0,68,0.00,,,0.00,,2013-01-09 07:32:00,
2013-01-09 01:42:00,39.0,29.0,29.91,WSW,246,10.0,18.0,68,0.00,,,0.00,,2013-01-09 07:42:00,
2013-01-09 01:52:00,39.0,30.0,29.91,SW,228,12.0,17.0,69,0.00,,,0.00,,2013-01-09 07:52:00,
2013-01-09 02:02:00,38.0,29.0,29.91,WSW,250,10.0,17.0,69,0.00,,,0.00,,2013-01-09 08:02:00,
2013-01-09 02:12:00,38.0,29.0,29.91,WSW,250,10.0,17.0,69,0.00,,,0.00,,2013-01-09 08:12:00,
2013-01-09 02:22:00,39.0,30.0,29.92,SW,224,13.0,18.0,70,0.00,,,0.00,,2013-01-09 08:22:00,
2013-01-09 02:32:00,38.0,29.0,29.92,West,259,11.0,19.0,71,0.00,,,0.00,,2013-01-09 08:32:00,
2013-01-09 02:42:00,38.0,29.0,29.92,West,259,11.0,19.0,71,0.00,,,0.00,,2013-01-09 08:42:00,
2013-01-09 02:53:00,38.0,30.0,29.93,WSW,244,12.0,19.0,72,0.00,,,0.00,,2013-01-09 08:53:00,
2013-01-09 03:02:00,38.0,30.0,29.93,WSW,246,15.0,17.0,73,0.00,,,0.00,,2013-01-09 09:02:00,
2013-01-09 03:12:00,38.0,30.0,29.93,WSW,246,15.0,17.0,73,0.00,,,0.00,,2013-01-09 09:12:00,
2013-01-09 03:22:00,37.0,30.0,29.94,WSW,244,11.0,15.0,75,0.00,,,0.00,,2013-01-09 09:22:00,
2013-01-09 03:32:00,37.0,30.0,29.94,WSW,246,12.0,17.0,76,0.00,,,0.00,,2013-01-09 09:32:00,
2013-01-09 03:42:00,37.0,30.0,29.94,WSW,246,12.0,17.0,76,0.00,,,0.00,,2013-01-09 09:42:00,
2013-01-09 03:53:00,36.0,29.0,29.94,WSW,255,17.0,17.0,77,0.00,,,0.00,,2013-01-09 09:53:00,
2013-01-09 04:02:00,36.0,30.0,29.94,WSW,244,11.0,18.0,78,0.00,,,0.00,,2013-01-09 10:02:00,
2013-01-09 04:12:00,36.0,30.0,29.94,WSW,244,11.0,18.0,78,0.00,,,0.00,,2013-01-09 10:12:00,
2013-01-09 04:22:00,36.0,30.0,29.96,WSW,258,11.0,14.0,79,0.00,,,0.00,,2013-01-09 10:22:00,
2013-01-09 04:32:00,35.0,29.0,29.96,WSW,243,13.0,17.0,80,0.00,,,0.00,,2013-01-09 10:32:00,
2013-01-09 04:42:00,35.0,29.0,29.96,WSW,243,13.0,17.0,80,0.00,,,0.00,,2013-01-09 10:42:00,
2013-01-09 04:52:00,34.0,29.0,29.98,SW,225,13.0,15.0,81,0.00,,,0.00,,2013-01-09 10:52:00,
2013-01-09 05:02:00,34.0,29.0,29.98,WSW,244,11.0,14.0,81,0.00,,,0.00,,2013-01-09 11:02:00,
2013-01-09 05:12:00,34.0,29.0,29.98,WSW,244,11.0,14.0,81,0.00,,,0.00,,2013-01-09 11:12:00,
2013-01-09 05:22:00,34.0,29.0,30.01,West,261,12.0,13.0,82,0.00,,,0.00,,2013-01-09 11:22:00,
2013-01-09 05:32:00,33.0,28.0,30.01,West,279,7.0,13.0,82,0.00,,,0.00,,2013-01-09 11:32:00,
2013-01-09 05:42:00,33.0,28.0,30.01,West,279,7.0,13.0,82,0.00,,,0.00,,2013-01-09 11:42:00,
2013-01-09 05:53:00,33.0,28.0,30.02,West,262,8.0,12.0,83,0.00,,,0.00,,2013-01-09 11:53:00,
2013-01-09 06:03:00,32.0,28.0,30.03,WSW,253,10.0,13.0,84,0.00,,,0.00,,2013-01-09 12:03:00,
2013-01-09 06:12:00,32.0,28.0,30.03,WSW,253,10.0,13.0,84,0.00,,,0.00,,2013-01-09 12:12:00,
2013-01-09 06:23:00,32.0,27.0,30.04,West,259,8.0,12.0,83,0.00,,,0.00,,2013-01-09 12:23:00,
2013-01-09 06:33:00,32.0,27.0,30.04,SW,230,11.0,13.0,83,0.00,,,0.00,,2013-01-09 12:33:00,
2013-01-09 06:43:00,32.0,27.0,30.04,SW,230,11.0,13.0,83,0.00,,,0.00,,2013-01-09 12:43:00,
2013-01-09 06:53:00,32.0,27.0,30.06,West,263,8.0,10.0,83,0.00,,,0.00,,2013-01-09 12:53:00,
2013-01-09 07:02:00,31.0,26.0,30.06,WSW,238,11.0,11.0,83,0.00,,,0.00,,2013-01-09 13:02:00,
2013-01-09 07:12:00,31.0,26.0,30.06,WSW,238,11.0,11.0,83,0.00,,,0.00,,2013-01-09 13:12:00,
2013-01-09 07:23:00,31.0,26.0,30.08,WSW,252,10.0,12.0,82,0.00,,,0.00,,2013-01-09 13:23:00,
2013-01-09 07:33:00,31.0,26.0,30.08,WSW,251,9.0,10.0,82,0.00,,,0.00,,2013-01-09 13:33:00,
2013-01-09 07:42:00,31.0,26.0,30.08,WSW,251,9.0,10.0,82,0.00,,,0.00,,2013-01-09 13:42:00,
2013-01-09 07:53:00,31.0,26.0,30.08,WSW,247,7.0,8.0,81,0.00,,,0.00,,2013-01-09 13:53:00,
2013-01-09 08:03:00,31.0,26.0,30.08,WSW,250,7.0,9.0,81,0.00,,,0.00,,2013-01-09 14:03:00,
2013-01-09 08:12:00,31.0,26.0,30.10,WSW,246,9.0,10.0,80,0.00,,,0.00,,2013-01-09 14:12:00,
2013-01-09 08:22:00,31.0,26.0,30.10,WSW,246,9.0,10.0,80,0.00,,,0.00,,2013-01-09 14:22:00,
2013-01-09 08:33:00,31.0,25.0,30.10,WSW,247,10.0,11.0,79,0.00,,,0.00,,2013-01-09 14:33:00,
2013-01-09 08:43:00,31.0,25.0,30.10,WSW,247,10.0,11.0,79,0.00,,,0.00,,2013-01-09 14:43:00,
2013-01-09 08:53:00,32.0,26.0,30.10,WSW,246,10.0,10.0,77,0.00,,,0.00,,2013-01-09 14:53:00,
2013-01-09 09:03:00,32.0,26.0,30.10,WSW,254,10.0,11.0,77,0.00,,,0.00,,2013-01-09 15:03:00,
2013-01-09 09:12:00,32.0,26.0,30.10,WSW,254,10.0,11.0,77,0.00,,,0.00,,2013-01-09 15:12:00,
2013-01-09 09:22:00,32.0,26.0,30.11,West,267,11.0,16.0,77,0.00,,,0.00,,2013-01-09 15:22:00,
2013-01-09 09:33:00,33.0,26.0,30.11,WNW,292,10.0,15.0,74,0.00,,,0.00,,2013-01-09 15:33:00,
2013-01-09 09:42:00,33.0,26.0,30.11,WNW,292,10.0,15.0,74,0.00,,,0.00,,2013-01-09 15:42:00,
2013-01-09 09:53:00,36.0,26.0,30.12,West,273,12.0,15.0,67,0.00,,,0.00,,2013-01-09 15:53:00,
2013-01-09 10:03:00,36.0,26.0,30.12,West,279,10.0,17.0,67,0.00,,,0.00,,2013-01-09 16:03:00,
2013-01-09 10:12:00,36.0,26.0,30.12,West,279,10.0,17.0,67,0.00,,,0.00,,2013-01-09 16:12:00,
2013-01-09 10:23:00,36.0,26.0,30.14,West,265,10.0,15.0,66,0.00,,,0.00,,2013-01-09 16:23:00,
2013-01-09 10:33:00,36.0,25.0,30.14,West,269,11.0,14.0,63,0.00,,,0.00,,2013-01-09 16:33:00,
2013-01-09 10:42:00,36.0,25.0,30.14,West,269,11.0,14.0,63,0.00,,,0.00,,2013-01-09 16:42:00,
2013-01-09 10:53:00,37.0,25.0,30.14,WSW,252,10.0,14.0,61,0.00,,,0.00,,2013-01-09 16:53:00,
2013-01-09 11:02:00,37.0,24.0,30.14,West,266,13.0,18.0,60,0.00,,,0.00,,2013-01-09 17:02:00,
2013-01-09 11:12:00,37.0,24.0,30.14,West,266,13.0,18.0,60,0.00,,,0.00,,2013-01-09 17:12:00,
2013-01-09 11:22:00,37.0,24.0,30.15,WSW,257,10.0,16.0,59,0.00,,,0.00,,2013-01-09 17:22:00,
2013-01-09 11:32:00,37.0,24.0,30.15,WSW,256,15.0,17.0,59,0.00,,,0.00,,2013-01-09 17:32:00,
2013-01-09 11:43:00,37.0,24.0,30.15,WSW,256,15.0,17.0,59,0.00,,,0.00,,2013-01-09 17:43:00,
2013-01-09 11:53:00,38.0,24.0,30.15,WSW,257,14.0,15.0,57,0.00,,,0.00,,2013-01-09 17:53:00,
2013-01-09 12:03:00,38.0,24.0,30.15,West,278,18.0,18.0,57,0.00,,,0.00,,2013-01-09 18:03:00,
2013-01-09 12:12:00,38.0,24.0,30.15,West,278,18.0,18.0,57,0.00,,,0.00,,2013-01-09 18:12:00,
2013-01-09 12:23:00,38.0,24.0,30.17,West,265,9.0,18.0,56,0.00,,,0.00,,2013-01-09 18:23:00,
2013-01-09 12:33:00,38.0,24.0,30.17,West,267,18.0,21.0,56,0.00,,,0.00,,2013-01-09 18:33:00,
2013-01-09 12:43:00,38.0,24.0,30.17,West,267,18.0,21.0,56,0.00,,,0.00,,2013-01-09 18:43:00,
2013-01-09 12:53:00,38.0,24.0,30.19,WSW,250,13.0,20.0,57,0.00,,,0.00,,2013-01-09 18:53:00,
2013-01-09 13:03:00,38.0,25.0,30.19,SW,226,15.0,20.0,58,0.00,,,0.00,,2013-01-09 19:03:00,
2013-01-09 13:12:00,38.0,25.0,30.19,SW,226,15.0,20.0,58,0.00,,,0.00,,2013-01-09 19:12:00,
2013-01-09 13:22:00,37.0,24.0,30.20,WSW,243,14.0,20.0,59,0.00,,,0.00,,2013-01-09 19:22:00,
2013-01-09 13:33:00,37.0,24.0,30.20,WSW,249,14.0,22.0,59,0.00,,,0.00,,2013-01-09 19:33:00,
2013-01-09 13:43:00,37.0,24.0,30.20,WSW,249,14.0,22.0,59,0.00,,,0.00,,2013-01-09 19:43:00,
2013-01-09 13:53:00,38.0,25.0,30.22,West,271,14.0,23.0,59,0.00,,,0.00,,2013-01-09 19:53:00,
2013-01-09 14:02:00,37.0,24.0,30.22,West,271,19.0,29.0,60,0.00,,,0.00,,2013-01-09 20:02:00,
2013-01-09 14:12:00,37.0,24.0,30.22,West,271,19.0,29.0,60,0.00,,,0.00,,2013-01-09 20:12:00,
2013-01-09 14:23:00,37.0,25.0,30.24,West,259,20.0,29.0,62,0.00,,,0.00,,2013-01-09 20:23:00,
2013-01-09 14:33:00,37.0,25.0,30.24,West,265,19.0,23.0,62,0.00,,,0.00,,2013-01-09 20:33:00,
2013-01-09 14:42:00,37.0,25.0,30.24,West,265,19.0,23.0,62,0.00,,,0.00,,2013-01-09 20:42:00,
2013-01-09 14:53:00,37.0,24.0,30.25,West,277,18.0,27.0,60,0.00,,,0.00,,2013-01-09 20:53:00,
2013-01-09 15:03:00,37.0,24.0,30.25,West,269,17.0,25.0,60,0.00,,,0.00,,2013-01-09 21:03:00,
2013-01-09 15:12:00,37.0,24.0,30.25,West,269,17.0,25.0,60,0.00,,,0.00,,2013-01-09 21:12:00,
2013-01-09 15:22:00,37.0,25.0,30.27,WSW,251,19.0,23.0,62,0.00,,,0.00,,2013-01-09 21:22:00,
2013-01-09 15:33:00,37.0,25.0,30.27,West,271,13.0,23.0,62,0.00,,,0.00,,2013-01-09 21:33:00,
2013-01-09 15:43:00,37.0,25.0,30.27,West,271,13.0,23.0,62,0.00,,,0.00,,2013-01-09 21:43:00,
2013-01-09 15:53:00,37.0,26.0,30.31,WSW,254,15.0,19.0,63,0.00,,,0.00,,2013-01-09 21:53:00,
2013-01-09 16:03:00,37.0,25.0,30.31,WSW,254,11.0,17.0,62,0.00,,,0.00,,2013-01-09 22:03:00,
2013-01-09 16:12:00,37.0,25.0,30.31,WSW,254,11.0,17.0,62,0.00,,,0.00,,2013-01-09 22:12:00,
2013-01-09 16:22:00,37.0,25.0,30.31,West,281,10.0,14.0,61,0.00,,,0.00,,2013-01-09 22:22:00,
2013-01-09 16:33:00,37.0,24.0,30.31,West,271,10.0,14.0,60,0.00,,,0.00,,2013-01-09 22:33:00,
2013-01-09 16:42:00,37.0,24.0,30.31,West,271,10.0,14.0,60,0.00,,,0.00,,2013-01-09 22:42:00,
2013-01-09 16:52:00,36.0,24.0,30.32,WSW,257,4.0,9.0,62,0.00,,,0.00,,2013-01-09 22:52:00,
2013-01-09 17:02:00,36.0,24.0,30.32,WSW,258,6.0,12.0,62,0.00,,,0.00,,2013-01-09 23:02:00,
2013-01-09 17:12:00,36.0,24.0,30.32,WSW,258,6.0,12.0,62,0.00,,,0.00,,2013-01-09 23:12:00,
2013-01-09 17:22:00,36.0,24.0,30.35,West,279,5.0,9.0,62,0.00,,,0.00,,2013-01-09 23:22:00,
2013-01-09 17:33:00,36.0,24.0,30.35,West,265,3.0,8.0,61,0.00,,,0.00,,2013-01-09 23:33:00,
2013-01-09 17:43:00,36.0,24.0,30.35,West,265,3.0,8.0,61,0.00,,,0.00,,2013-01-09 23:43:00,
2013-01-09 17:53:00,35.0,23.0,30.36,West,263,4.0,8.0,60,0.00,,,0.00,,2013-01-09 23:53:00,
2013-01-09 18:03:00,35.0,23.0,30.36,West,278,3.0,9.0,60,0.00,,,0.00,,2013-01-10 00:03:00,
2013-01-09 18:12:00,35.0,23.0,30.36,West,278,3.0,9.0,60,0.00,,,0.00,,2013-01-10 00:12:00,
2013-01-09 18:22:00,35.0,23.0,30.38,West,263,5.0,8.0,60,0.00,,,0.00,,2013-01-10 00:22:00,
2013-01-09 18:32:00,34.0,22.0,30.38,West,272,3.0,7.0,62,0.00,,,0.00,,2013-01-10 00:32:00,
2013-01-09 18:42:00,34.0,22.0,30.38,West,272,3.0,7.0,62,0.00,,,0.00,,2013-01-10 00:42:00,
2013-01-09 18:53:00,34.0,22.0,30.39,West,265,3.0,3.0,62,0.00,,,0.00,,2013-01-10 00:53:00,
2013-01-09 19:02:00,34.0,22.0,30.39,West,265,3.0,3.0,62,0.00,,,0.00,,2013-01-10 01:02:00,
2013-01-09 19:12:00,34.0,22.0,30.39,West,265,3.0,3.0,62,0.00,,,0.00,,2013-01-10 01:12:00,
2013-01-09 19:22:00,33.0,22.0,30.40,West,265,0.0,3.0,64,0.00,,,0.00,,2013-01-10 01:22:00,
2013-01-09 19:32:00,32.0,21.0,30.40,West,265,1.0,2.0,64,0.00,,,0.00,,2013-01-10 01:32:00,
2013-01-09 19:42:00,32.0,21.0,30.40,West,265,1.0,2.0,64,0.00,,,0.00,,2013-01-10 01:42:00,
2013-01-09 19:53:00,30.0,22.0,30.42,West,265,2.0,3.0,71,0.00,,,0.00,,2013-01-10 01:53:00,
2013-01-09 20:02:00,30.0,22.0,30.43,West,265,2.0,3.0,72,0.00,,,0.00,,2013-01-10 02:02:00,
2013-01-09 20:12:00,30.0,22.0,30.43,West,265,2.0,3.0,72,0.00,,,0.00,,2013-01-10 02:12:00,
2013-01-09 20:22:00,31.0,22.0,30.44,West,265,2.0,3.0,69,0.00,,,0.00,,2013-01-10 02:22:00,
2013-01-09 20:32:00,30.0,21.0,30.44,West,265,1.0,2.0,69,0.00,,,0.00,,2013-01-10 02:32:00,
2013-01-09 20:42:00,30.0,21.0,30.44,West,265,1.0,2.0,69,0.00,,,0.00,,2013-01-10 02:42:00,
2013-01-09 20:52:00,30.0,21.0,30.44,West,265,1.0,2.0,69,0.00,,,0.00,,2013-01-10 02:52:00,
2013-01-09 21:02:00,30.0,21.0,30.43,West,265,1.0,2.0,70,0.00,,,0.00,,2013-01-10 03:02:00,
2013-01-09 21:12:00,30.0,21.0,30.43,West,265,1.0,2.0,70,0.00,,,0.00,,2013-01-10 03:12:00,
2013-01-09 21:22:00,29.0,21.0,30.43,West,265,0.0,0.0,72,0.00,,,0.00,,2013-01-10 03:22:00,
2013-01-09 21:32:00,28.0,21.0,30.43,West,265,0.0,0.0,74,0.00,,,0.00,,2013-01-10 03:32:00,
2013-01-09 21:42:00,28.0,21.0,30.43,West,265,0.0,0.0,74,0.00,,,0.00,,2013-01-10 03:42:00,
2013-01-09 21:52:00,28.0,21.0,30.43,West,265,0.0,1.0,76,0.00,,,0.00,,2013-01-10 03:52:00,
2013-01-09 22:02:00,27.0,21.0,30.42,West,265,2.0,2.0,78,0.00,,,0.00,,2013-01-10 04:02:00,
2013-01-09 22:12:00,27.0,21.0,30.42,West,265,2.0,2.0,78,0.00,,,0.00,,2013-01-10 04:12:00,
2013-01-09 22:22:00,27.0,21.0,30.42,West,265,0.0,0.0,79,0.00,,,0.00,,2013-01-10 04:22:00,
2013-01-09 22:32:00,26.0,21.0,30.40,West,265,0.0,0.0,80,0.00,,,0.00,,2013-01-10 04:32:00,
2013-01-09 22:42:00,26.0,21.0,30.40,West,265,0.0,0.0,80,0.00,,,0.00,,2013-01-10 04:42:00,
2013-01-09 22:52:00,26.0,21.0,30.40,West,265,0.0,1.0,81,0.00,,,0.00,,2013-01-10 04:52:00,
2013-01-09 23:03:00,26.0,20.0,30.39,West,265,0.0,0.0,79,0.00,,,0.00,,2013-01-10 05:03:00,
2013-01-09 23:12:00,26.0,20.0,30.39,West,265,0.0,0.0,79,0.00,,,0.00,,2013-01-10 05:12:00,
2013-01-09 23:22:00,26.0,21.0,30.39,West,265,0.0,0.0,80,0.00,,,0.00,,2013-01-10 05:22:00,
2013-01-09 23:33:00,26.0,21.0,30.41,West,265,2.0,3.0,81,0.00,,,0.00,,2013-01-10 05:33:00,
2013-01-09 23:42:00,26.0,21.0,30.41,West,265,2.0,3.0,81,0.00,,,0.00,,2013-01-10 05:42:00,
2013-01-09 23:52:00,26.0,21.0,30.41,West,265,0.0,2.0,81,0.00,,,0.00,,2013-01-10 05:52:00,